DECAYED

STARLINK-30451, 57905 (Decayed)

Orbit data source: Space-Track

STARLINK-30451, 57905 was a payload satellite owned by SpaceX/Seattle (US) in LEO that was launched on Wed, 20 Sep 2023 UTC via an FALCON 9 launch vehicle from the Air Force Eastern Test Range (AFETR). Payload-class satellites include a variety of spacecraft equipped with specific instruments for various scientific and technological missions. These include communications satellites like Starlink; space stations such as the ISS; scientific satellites like the Hubble; Earth observation satellites from companies like Planet Labs, Umbra, and HawkEye 360; GPS; miniature CubeSats for education and research; and military/defense satellites.

Not visible in the next 10 days
Identifier
57905, 2023-146Q
Orbit
Decayed
Country
Flag of USUS
Related business
Manufacturer
SpaceX/Seattle
Mission
Decayed Commercial Communications
Bus & Motor
STARLINK V2M, Unknown motor
Mass
730 kg wet, ~700 kg dry
Launch date (UTC)
2023-09-20 (3 years ago)
Launch vehicle
FALCON 9
Launch site
Air Force Eastern Test Range (AFETR)
Object type
Payload
Rocket body
Debris
Shape & HBR
Box + 2 Pan, 17.7 m
Radar Cross Section
33.884 m², Large (>1 m²)

Expand to show TLE details & history
Last TLE update: 4 months ago

TLE from 4 months ago
0 STARLINK-30451
1 57905U 23146Q   26044.41240023  .01924218  30919-2  19580-2 0  9990
2 57905  42.9953  63.5915 0002387 153.2134 206.8872 16.10716953132602
Epoch: 2026-02-13T09:53Z
TLE epoch observation values (Epoch: 2026-02-13T09:53:51.379Z)
Latitude
-0.00002°
Longitude
131.67722°
Altitude
246.054 km
Speed
7.76 km/s
True Right ascension
04h 14m 21s
True Declination
0° 00' 00"
Sunlit
Object was in daylight at epoch
Visualization orbit readout
Latitude
Unknown
Longitude
Unknown
Altitude
Unknown
Speed
Unknown
Apparent Right ascension
Unknown
Apparent Declination
Unknown
Sunlit
N/A
Visualization observer readout
Local Sidereal Time
00:51:10
Azimuth
Unknown
Elevation
Unknown
Doppler factor
Unknown
Orbital elements
Apogee altitude
248.474 km
Perigee altitude
245.312 km
Semi-major axis
6,625.03 km
Eccentricity
0.00024
Inclination
42.9953°
RAAN
63.5915°
Arg. of periapsis
153.2134°
True anomaly
206.87483°
Mean anomaly
206.8872°
Eccentric anomaly
206.88102°
Mean motion
4.02496 °/min
Orbital period
89.44 mins
BSTAR
0.001958
Loading maneuver chart data...
Computing Atmospheric mass density...
Loading historical data...
Loading historical data...
Loading historical data...
Loading historical data...
Loading historical data...
Loading historical data...
Loading historical data...

Documentation

Showing up to 5 results
|